This is the latest recevied weather packets stored in our database for station/object KC1OEK-13. If no packets are shown the sender has not sent any weather packets the latest 10 day(s).
| Time | Temp. | Humidity | Pressure | Rain* | Wind** | Luminosity | Snow |
|---|---|---|---|---|---|---|---|
| 1787486037 | 19.44° C | 99% | 1013.1 hPa | 1.27 mm | - | 21 W/m² | - |
| 1787485733 | 19.44° C | 99% | 1012.9 hPa | 1.27 mm | - | 20 W/m² | - |
| 1787485429 | 19.44° C | 99% | 1013.1 hPa | 0 mm | - | 18 W/m² | - |
| 1787485123 | 19.44° C | 99% | 1012.9 hPa | 0 mm | - | 23 W/m² | - |
| 1787484819 | 18.89° C | 99% | 1012.9 hPa | 0 mm | - | 15 W/m² | - |
| 1787484516 | 18.89° C | 99% | 1013.1 hPa | 0 mm | - | 13 W/m² | - |
| 1787484211 | 18.89° C | 99% | 1013.1 hPa | 0 mm | - | 8 W/m² | - |
| 1787483907 | 18.89° C | 99% | 1012.8 hPa | 0 mm | - | 8 W/m² | - |
| 1787483604 | 18.89° C | 99% | 1012.5 hPa | 0 mm | - | 8 W/m² | - |
| 1787483300 | 18.89° C | 99% | 1012.7 hPa | 0 mm | - | 9 W/m² | - |
| 1787482996 | 18.89° C | 99% | 1012.7 hPa | 0 mm | - | 7 W/m² | - |
| 1787482691 | 18.89° C | 99% | 1012.8 hPa | 0 mm | - | 8 W/m² | - |
| 1787482387 | 18.89° C | 99% | 1013.1 hPa | 0 mm | - | 4 W/m² | - |
| 1787482083 | 18.89° C | 99% | 1013 hPa | 0 mm | - | 2 W/m² | - |
| 1787481783 | 18.89° C | 99% | 1012.9 hPa | 0 mm | - | 1 W/m² | - |
| 1787481477 | 18.89° C | 99% | 1013 hPa | 0 mm | - | 1 W/m² | - |
| 1787481176 | 18.89° C | 99% | 1012.9 hPa | 0 mm | - | 1 W/m² | - |
| 1787480871 | 18.89° C | 99% | 1013.1 hPa | 0 mm | - | 1 W/m² | - |
| 1787480568 | 18.89° C | 99% | 1013 hPa | 1.78 mm | - | 1 W/m² | - |
| 1787480264 | 18.89° C | 99% | 1013 hPa | 3.05 mm | - | 0 W/m² | - |
| 1787479959 | 18.89° C | 99% | 1012.8 hPa | 1.27 mm | - | 0 W/m² | - |
| 1787479656 | 18.89° C | 99% | 1012.9 hPa | 0 mm | - | 0 W/m² | - |
| 1787479352 | 18.89° C | 99% | 1012.8 hPa | 0 mm | - | 0 W/m² | - |
| 1787479050 | 18.89° C | 99% | 1012.8 hPa | 0 mm | - | 0 W/m² | - |
| 1787478745 | 18.89° C | 99% | 1012.7 hPa | 0 mm | - | 0 W/m² | - |
* Rain latest hour (hover to see other rain measurements)
** Current wind speed in m/s (hover to see current wind gust speed)